This demonstration page uses our WeatherBlox Daily Observations layout. Learn more.

Hourly Observations for February 20, 2018

Temp ( °F °C ) Dew Point ( °F °C ) Humidity (%) Winds ( mph kmh ) Pressure ( in mb ) Visibility ( mi km ) Precip ( " mm )
12:15 am 00:15 Cloudy with Light Snow 12 -11 10 -12.5 89 89 NNW 14 22 30.09 1019 10 16.0934 0 0
12:35 am 00:35 Cloudy with Light Snow 12 -11 9 -12.7 87 87 NNW 13 20 30.09 1019 5 8.0467 0 0
12:55 am 00:55 Cloudy 12 -11.2 8 -13.1 86 86 NNW 14 22 30.09 1019 10 16.0934 0 0
1:15 am 01:15 Cloudy 12 -11.2 8 -13.2 85 85 NNW 13 20 30.09 1019 10 16.0934 0 0
1:35 am 01:35 Cloudy with Light Snow 12 -11.2 8 -13.5 83 83 N 13 20 30.09 1019 10 16.0934 0 0
1:55 am 01:55 Cloudy with Light Snow 12 -11.2 8 -13.4 84 84 N 14 22 30.09 1019 10 16.0934 0 0
2:15 am 02:15 Cloudy 12 -11.1 8 -13.5 83 83 NNW 13 20 30.12 1020 10 16.0934 0 0
2:35 am 02:35 Cloudy 12 -11.1 7 -13.7 81 81 N 14 22 30.12 1020 10 16.0934 0 0
2:55 am 02:55 Cloudy 12 -11.1 7 -13.8 81 81 N 13 20 30.12 1020 10 16.0934 0 0
3:15 am 03:15 Cloudy 12 -11.1 7 -13.7 81 81 NNW 15 24 30.12 1020 10 16.0934 0 0
3:35 am 03:35 Cloudy 12 -11.2 7 -14 80 80 NNW 15 24 30.12 1020 10 16.0934 0 0
3:55 am 03:55 Cloudy 12 -11.2 6 -14.2 79 79 NNW 15 24 30.15 1021 10 16.0934 0 0
4:15 am 04:15 Cloudy 11 -11.6 6 -14.4 80 80 NW 20 31 30.18 1022 10 16.0934 0 0
4:35 am 04:35 Cloudy 11 -11.8 6 -14.7 79 79 NNW 15 24 30.15 1021 10 16.0934 0 0
4:55 am 04:55 Cloudy 10 -12 5 -15 79 79 NNW 18 30 30.15 1021 10 16.0934 0 0
5:15 am 05:15 Cloudy 10 -12.2 4 -15.7 75 75 N 15 24 30.18 1022 10 16.0934 0 0
5:35 am 05:35 Partly Cloudy 9 -12.6 3 -16 76 76 NNW 12 19 30.21 1023 10 16.0934 0 0
5:55 am 05:55 Partly Cloudy 9 -12.7 4 -15.6 79 79 NNW 14 22 30.21 1023 10 16.0934 0 0
6:15 am 06:15 Partly Cloudy 9 -12.9 3 -16.3 76 76 NNW 12 19 30.24 1024 10 16.0934 0 0
6:35 am 06:35 Mostly Cloudy 9 -12.7 3 -16 77 77 NNW 16 26 30.24 1024 10 16.0934 0 0
6:55 am 06:55 Cloudy 9 -13 2 -16.5 75 75 NNW 16 26 30.24 1024 10 16.0934 0 0
7:15 am 07:15 Cloudy 8 -13.1 2 -16.7 75 75 N 16 26 30.27 1025 10 16.0934 0 0
7:35 am 07:35 Cloudy 8 -13.1 2 -16.5 76 76 NNW 13 20 30.27 1025 10 16.0934 0 0
7:55 am 07:55 Cloudy 8 -13.1 2 -16.9 73 73 NNW 12 19 30.3 1026 10 16.0934 0 0
8:15 am 08:15 Cloudy 9 -13 2 -16.8 73 73 NNW 16 26 30.3 1026 10 16.0934 0 0
8:35 am 08:35 Partly Cloudy 9 -13 2 -16.9 73 73 NNW 12 19 30.33 1027 10 16.0934 0 0
8:55 am 08:55 Sunny 9 -12.9 2 -16.9 72 72 NNW 16 26 30.33 1027 10 16.0934 0 0
9:15 am 09:15 Partly Cloudy 9 -12.7 2 -16.9 71 71 NNW 15 24 30.36 1028 10 16.0934 0 0
9:35 am 09:35 Sunny 9 -12.6 2 -16.8 71 71 NNW 13 20 30.36 1028 10 16.0934 0 0
9:55 am 09:55 Partly Cloudy 10 -12.3 2 -16.5 71 71 NNW 17 28 30.36 1028 10 16.0934 0 0
10:15 am 10:15 Partly Cloudy 11 -11.9 3 -16.3 70 70 NNW 17 28 30.36 1028 10 16.0934 0 0
10:35 am 10:35 Partly Cloudy 11 -11.6 3 -16 70 70 NNW 22 35 30.36 1028 10 16.0934 0 0
10:55 am 10:55 Sunny 12 -11.2 4 -15.6 70 70 NNW 18 30 30.36 1028 10 16.0934 0 0
11:15 am 11:15 Sunny 12 -10.9 4 -15.4 70 70 NW 14 22 30.33 1027 10 16.0934 0 0
11:35 am 11:35 Sunny 13 -10.3 5 -15.1 68 68 NNW 17 28 30.3 1026 10 16.0934 0 0
11:55 am 11:55 Sunny 14 -10.1 5 -15.1 67 67 NNW 18 30 30.33 1027 10 16.0934 0 0
12:15 pm 12:15 Sunny 15 -9.4 6 -14.5 67 67 NW 17 28 30.33 1027 10 16.0934 0 0
12:35 pm 12:35 Sunny 16 -8.8 6 -14.4 64 64 NNW 18 30 30.33 1027 10 16.0934 0 0
12:55 pm 12:55 Sunny 17 -8.3 6 -14.2 63 63 NW 15 24 30.33 1027 10 16.0934 0 0
1:15 pm 13:15 Sunny 17 -8.2 6 -14.2 62 62 NW 15 24 30.3 1026 10 16.0934 0 0
1:35 pm 13:35 Sunny 18 -7.7 7 -14 61 61 NNW 12 19 30.3 1026 10 16.0934 0 0
1:55 pm 13:55 Sunny 18 -7.8 6 -14.2 60 60 NNW 12 19 30.3 1026 10 16.0934 0 0
2:15 pm 14:15 Sunny 19 -7.2 7 -13.9 59 59 NNW 10 17 30.3 1026 10 16.0934 0 0
2:35 pm 14:35 Sunny 18 -7.6 7 -13.9 61 61 N 10 17 30.3 1026 10 16.0934 0 0
2:55 pm 14:55 Sunny 19 -7.4 6 -14.2 59 59 N 13 20 30.33 1027 10 16.0934 0 0
3:15 pm 15:15 Sunny 19 -7.3 6 -14.2 58 58 N 10 17 30.33 1027 10 16.0934 0 0
3:35 pm 15:35 Sunny 20 -6.9 7 -13.8 58 58 N 14 22 30.33 1027 10 16.0934 0 0
3:55 pm 15:55 Sunny 18 -7.6 6 -14.4 59 59 NNW 13 20 30.36 1028 10 16.0934 0 0
4:15 pm 16:15 Sunny 18 -7.6 6 -14.7 57 57 N 13 20 30.36 1028 10 16.0934 0 0
4:35 pm 16:35 Sunny 18 -7.7 6 -14.6 58 58 N 15 24 30.39 1029 10 16.0934 0 0
4:55 pm 16:55 Sunny 17 -8.2 6 -14.7 60 60 NNW 10 17 30.42 1030 10 16.0934 0 0
5:15 pm 17:15 Sunny 17 -8.5 6 -14.6 62 62 NNW 14 22 30.42 1030 10 16.0934 0 0
5:35 pm 17:35 Sunny 16 -8.8 6 -14.6 63 63 N 10 17 30.42 1030 10 16.0934 0 0
5:55 pm 17:55 Sunny 15 -9.2 6 -14.6 65 65 NNW 9 15 30.45 1031 10 16.0934 0 0
6:15 pm 18:15 Sunny 14 -9.8 6 -14.7 68 68 N 10 17 30.45 1031 10 16.0934 0 0
6:35 pm 18:35 Clear 13 -10.3 5 -15.1 68 68 N 9 15 30.48 1032 10 16.0934 0 0
6:55 pm 18:55 Clear 13 -10.7 5 -15.1 70 70 N 8 13 30.5 1033 10 16.0934 0 0
7:15 pm 19:15 Clear 12 -11 5 -15.2 71 71 N 8 13 30.5 1033 10 16.0934 0 0
7:35 pm 19:35 Clear 12 -11.2 4 -15.3 72 72 N 9 15 30.5 1033 10 16.0934 0 0
7:55 pm 19:55 Clear 11 -11.6 4 -15.3 74 74 N 7 11 30.5 1033 10 16.0934 0 0
8:15 pm 20:15 Clear 10 -12 4 -15.3 77 77 N 7 11 30.53 1034 10 16.0934 0 0
8:35 pm 20:35 Clear 10 -12.2 4 -15.3 78 78 N 7 11 30.53 1034 10 16.0934 0 0
8:55 pm 20:55 Clear 9 -12.6 4 -15.3 80 80 N 7 11 30.56 1035 10 16.0934 0 0
9:15 pm 21:15 Clear 9 -13 4 -15.6 81 81 N 6 9 30.59 1036 10 16.0934 0 0
9:35 pm 21:35 Clear 9 -13 4 -15.7 80 80 NNW 8 13 30.59 1036 10 16.0934 0 0
9:55 pm 21:55 Clear 8 -13.1 4 -15.8 80 80 NNW 7 11 30.59 1036 10 16.0934 0 0
10:15 pm 22:15 Clear 8 -13.1 3 -16 79 79 NNW 8 13 30.59 1036 10 16.0934 0 0
10:35 pm 22:35 Clear 8 -13.2 3 -16 80 80 N 9 15 30.59 1036 10 16.0934 0 0
10:55 pm 22:55 Clear 8 -13.1 3 -16 79 79 NNW 9 15 30.62 1037 10 16.0934 0 0
11:15 pm 23:15 Clear 9 -13 3 -16 78 78 NNW 7 11 30.62 1037 10 16.0934 0 0
11:35 pm 23:35 Clear 9 -13 3 -16.1 78 78 NNW 6 9 30.62 1037 10 16.0934 0 0
11:55 pm 23:55 Clear 9 -12.9 3 -15.9 78 78 NNW 7 11 30.62 1037 10 16.0934 0 0

Powered by AerisWeather